Roda de Ter - l'Esquerda





Hora UTC 03:50
Temperatura 9.2 ºC
Humitat 89.0 %
Pressió 1014.0 hPa
Pluja 0.0 mm
Velocitat vent 0.0 km/h
Direcció vent WNW

Dades diàries 2021-05-13



Hora UTC (hivern +1h; estiu +2h)
Temperatura (ºC) Humitat (%) Pressió (hPa) Velocitat vent (km/h) Precipitació (mm)
Hora UTC Aire Humitat Pressió Vel. Dir. Vel. Max Dir. Intent. màx 5 min.
00:05 10.7 75.0 1014.2 4.8 S 4.8 0.0
00:10 10.5 76.0 1014.0 3.2 SSE 8.0 0.0
00:15 10.4 76.0 1014.1 3.2 ESE 8.0 0.0
00:20 10.4 78.0 1014.2 3.2 NNE 6.4 0.0
00:25 10.3 78.0 1014.0 3.2 ENE 8.0 0.0
00:30 10.3 78.0 1014.0 3.2 NNE 6.4 0.0
00:35 10.2 77.0 1014.0 0.0 NNE 6.4 0.0
00:40 9.9 78.0 1013.9 3.2 NNE 6.4 0.0
00:45 9.7 80.0 1013.9 1.6 NNE 6.4 0.0
00:50 9.7 80.0 1013.9 3.2 NE 6.4 0.0
00:55 9.5 80.0 1013.9 0.0 SSE 4.8 0.0
01:00 9.5 82.0 1013.9 0.0 E 4.8 0.0
01:05 9.4 82.0 1013.9 1.6 E 4.8 0.0
01:10 9.3 82.0 1013.9 3.2 WNW 8.0 0.0
01:15 9.5 83.0 1014.0 1.6 WNW 8.0 0.0
01:20 9.3 83.0 1014.1 3.2 N 4.8 0.0
01:25 9.1 84.0 1014.0 3.2 NNW 4.8 0.0
01:30 8.9 84.0 1014.0 0.0 NNW 4.8 0.0
01:35 8.8 84.0 1013.9 3.2 N 3.2 0.0
01:40 8.6 85.0 1014.0 3.2 NNE 6.4 0.0
01:45 8.5 86.0 1014.1 4.8 N 6.4 0.0
01:50 8.4 86.0 1014.2 0.0 N 6.4 0.0
01:55 8.3 86.0 1014.1 1.6 N 4.8 0.0
02:00 8.2 86.0 1014.3 3.2 N 4.8 0.0
02:05 8.2 87.0 1014.2 0.0 N 4.8 0.0
02:10 8.5 87.0 1014.3 0.0 N 4.8 0.0
02:15 8.6 88.0 1014.2 3.2 N 4.8 0.0
02:20 8.9 88.0 1014.2 1.6 SW 6.4 0.0
02:25 9.2 87.0 1014.2 1.6 SW 6.4 0.0
02:30 9.3 86.0 1014.1 3.2 SE 4.8 0.0
02:35 9.4 86.0 1014.1 0.0 SE 6.4 0.0
02:40 9.4 85.0 1014.1 1.6 SSE 6.4 0.0
02:45 9.3 86.0 1014.1 0.0 NNE 6.4 0.0
02:50 9.3 86.0 1014.1 0.0 NNE 3.2 0.0
02:55 9.2 87.0 1014.1 0.0 NNE 1.6 0.0
03:00 9.1 87.0 1014.1 1.6 NNE 3.2 0.0
03:05 9.2 87.0 1014.1 1.6 NW 3.2 0.0
03:10 9.4 87.0 1013.9 0.0 WNW 3.2 0.0
03:15 9.4 87.0 1013.8 0.0 WNW 3.2 0.0
03:20 9.3 87.0 1013.9 0.0 WNW 3.2 0.0
03:25 9.1 87.0 1013.9 1.6 WNW 3.2 0.0
03:30 9.2 88.0 1013.8 0.0 WNW 3.2 0.0
03:35 9.2 88.0 1013.9 0.0 WNW 3.2 0.0
03:40 9.2 88.0 1013.9 0.0 WNW 1.6 0.0
03:45 9.2 88.0 1013.9 0.0 WNW 0.0 0.0
03:50 9.2 89.0 1014.0 0.0 WNW 0.0 0.0
Màxima 10.7 89.0 1014.3 4.8 N 8.0 0.0
Mínima 8.2 75.0 1013.8
Total 0.0